Volver al catálogo

FENGYUN 1C DEB

ActivoPO
NORAD 40695·DEBRIS·🇨🇳 China

Lanzado May 10, 1999 desde Taiyuan Satellite Launch Center

Loading…

Próximos Pases (próximas 24 horas)

TLE

EnvejeciendoSource: Space-Track

Época: Sep 10, 2026, 16:38 UTC

1 40695U 99025EXB 26253.69333022  .00000898  00000-0  14672-3 0  9993
2 40695  99.4616  50.6365 0277377 245.2909 111.9178 14.51903622358119

Sigue FENGYUN 1C DEB en tiempo real con AllMySat

Download on the App Store